TimeEST,TemperatureF,Dew PointF,Humidity,Sea Level PressureIn,VisibilityMPH,Wind Direction,Wind SpeedMPH,Gust SpeedMPH,PrecipitationIn,Events,Conditions,WindDirDegrees,DateUTC
12:53 AM,21.9,12.9,68,30.33,10.0,Calm,Calm,-,N/A,,Clear,0,2009-01-01 05:53:00
1:53 AM,19.0,12.0,74,30.35,10.0,Calm,Calm,-,N/A,,Clear,0,2009-01-01 06:53:00
2:53 AM,19.0,12.0,74,30.38,10.0,North,3.5,-,N/A,,Clear,360,2009-01-01 07:53:00
3:53 AM,18.0,12.9,81,30.38,10.0,Calm,Calm,-,0.01,,Clear,0,2009-01-01 08:53:00
4:53 AM,18.0,12.0,78,30.35,10.0,Calm,Calm,-,N/A,,Clear,0,2009-01-01 09:53:00
5:53 AM,16.0,12.0,84,30.37,10.0,Calm,Calm,-,N/A,,Clear,0,2009-01-01 10:53:00
6:53 AM,17.1,12.0,81,30.37,10.0,Calm,Calm,-,N/A,,Partly Cloudy,0,2009-01-01 11:53:00
7:53 AM,16.0,10.9,81,30.37,10.0,Calm,Calm,-,N/A,,Scattered Clouds,0,2009-01-01 12:53:00
8:53 AM,21.9,14.0,72,30.35,10.0,NE,4.6,-,N/A,,Scattered Clouds,40,2009-01-01 13:53:00
9:53 AM,26.1,15.1,63,30.35,10.0,ENE,4.6,-,N/A,,Partly Cloudy,60,2009-01-01 14:53:00
10:53 AM,30.0,15.1,54,30.33,10.0,NE,3.5,-,N/A,,Clear,40,2009-01-01 15:53:00
11:53 AM,33.1,14.0,46,30.30,10.0,Calm,Calm,-,N/A,,Clear,0,2009-01-01 16:53:00
12:53 PM,37.0,12.9,37,30.25,10.0,Variable,3.5,-,N/A,,Clear,0,2009-01-01 17:53:00
1:53 PM,42.1,10.9,28,30.21,10.0,Calm,Calm,-,N/A,,Clear,0,2009-01-01 18:53:00
2:53 PM,43.0,10.9,27,30.19,10.0,Calm,Calm,-,N/A,,Clear,0,2009-01-01 19:53:00
3:53 PM,45.0,12.0,26,30.16,10.0,Calm,Calm,-,N/A,,Clear,0,2009-01-01 20:53:00
4:53 PM,44.1,12.9,28,30.14,10.0,Calm,Calm,-,N/A,,Clear,0,2009-01-01 21:53:00
5:53 PM,39.0,14.0,36,30.14,10.0,Calm,Calm,-,N/A,,Clear,0,2009-01-01 22:53:00
6:53 PM,39.9,6.1,25,30.13,10.0,SSE,5.8,-,N/A,,Clear,160,2009-01-01 23:53:00
7:53 PM,39.9,3.0,21,30.13,10.0,SSE,6.9,-,N/A,,Clear,150,2009-01-02 00:53:00
8:53 PM,39.0,3.9,23,30.11,10.0,SSE,5.8,-,N/A,,Mostly Cloudy,160,2009-01-02 01:53:00
9:53 PM,37.9,5.0,25,30.10,10.0,SSE,4.6,-,N/A,,Mostly Cloudy,160,2009-01-02 02:53:00
10:53 PM,37.0,6.1,28,30.08,10.0,Variable,3.5,-,N/A,,Partly Cloudy,0,2009-01-02 03:53:00
11:53 PM,36.0,6.1,29,30.07,10.0,Calm,Calm,-,N/A,,Partly Cloudy,0,2009-01-02 04:53:00